Regional Weather Roundup
Issued by NWS Midland/Odessa, TX

Home | Current Version | Previous Version | Text Only | Print | Product List | Glossary On
Versions: 1 2 3 4 5 6 7 8 9 10 11 12 13 14 15 16 17 18 19 20 21 22 23 24 25 26 27 28 29 30 31 32 33 34 35 36 37 38 39 40 41 42 43 44 45 46 47 48 49 50
000
ASUS44 KMAF 261910
RWRMAF
MIDLAND AREA WEATHER ROUNDUP
NATIONAL WEATHER SERVICE MIDLAND TX
200 PM CDT THU MAY 26 2016

...IN SOUTHWEST TEXAS AND SOUTHEAST NEW MEXICO...

CITY           SKY/WX    TMP DP  RH WIND       PRES   REMARKS
ALPINE         MOSUNNY   88  42  19 SW23G36   29.99F
ANDREWS        FAIR      90  30  11 SW20      29.85F
ARTESIA        SUNNY     86  21   9 W31G39    29.85F
BIG SPRING     SUNNY     90  40  17 S13G21    29.82F
CARLSBAD       SUNNY     91  22   8 W16G33    29.82F
DRYDEN           N/A     97  50  20 S13       29.79F
FORT STOCKTON  SUNNY     96  43  16 SW23G32   29.82F
GUAD PASS      NOT AVBL
HOBBS          SUNNY     88  25  10 SW14G21   29.85F
MARFA          MOSUNNY   85  40  20 SW26G35   29.97F
MIDLAND AIRPK  SUNNY     97  29   9 W12G24    29.82F
MIDLAND INTL   SUNNY     96  30   9 SW20G39   29.82F
ODESSA         SUNNY     96  32  10 W18G29    29.83F
PECOS          SUNNY     95  40  15 W21       29.79F
PRESIDIO       FAIR      94  46  18 SW18      29.84F
SEMINOLE       SUNNY     89  30  12 SW20G29   29.85F
SNYDER           N/A     90  57  32 S14       29.80F
WINK           SUNNY     94  31  10 MISG      29.80F
$$
...OTHER STATIONS IN TEXAS...

CITY           SKY/WX    TMP DP  RH WIND       PRES   REMARKS
ABILENE        SUNNY     87  70  56 S14       29.80F
AMARILLO       SUNNY     89  30  12 S18G32    29.79F
AUSTIN         CLOUDY    84  76  76 S16       29.83F THUNDER
BROWNSVILLE    MOSUNNY   90  76  63 S17G30    29.89F HX 101
CORPUS CHRISTI CLOUDY    87  78  74 S25G35    29.86F HX 100
DALLAS FTW     LGT RAIN  80  61  52 SE21G29   29.86S
DEL RIO        SUNNY     92  70  48 SE15      29.78F
EL PASO        MOSUNNY   82  31  15 SW17G33   29.92F
HOUSTON INT    LGT RAIN  80  74  81 SE13      29.91F
LUBBOCK        MOSUNNY   90  33  13 SW21G32   29.80F
SAN ANGELO     SUNNY     90  68  48 S14G24    29.81F
SAN ANTONIO    CLOUDY    85  76  74 S14       29.84F
WACO           CLOUDY    73  66  78 SE20      29.87F
WICHITA FALLS  NOT AVBL
$$
...OTHER LOCATIONS IN NEW MEXICO...

CITY           SKY/WX    TMP DP  RH WIND       PRES   REMARKS
ALAMAGORDO     SUNNY     77  19  11 W17G28    29.93F
ALBUQUERQUE    MOSUNNY   72  11   9 SW17G25   29.90F
CANNON AFB     MOSUNNY   82  21  10 SW21G28   29.84F
CLOVIS         SUNNY     82  28  14 SW20G29   29.85F
HOLLOMAN AFB   MOSUNNY   78  18  10 SW15G31   29.92F
ROSWELL        SUNNY     87  18   8 SW23G33   29.82F
RUIDOSO          N/A     66  16  14 SW32G39   30.03S
SANTA FE       MOSUNNY   66  15  14 MISG      29.92F
TRUTH OR CONSE SUNNY     75   9   8 W17G30    29.91F
TUCUMCARI      SUNNY     86  12   6 SW29G43   29.79F
$$



USA.gov is the U.S. government's official web portal to all federal, state and local government web resources and services.